Location: Krakow
(50.0830°N, 19.9170°E)
Time: 19:30:42
(UTC+01:00)

SR - Pass Details

Date: 09 February 2023
Orbit: 582 x 867 km, 66.7° (Epoch: 20 March)

Event Time Altitude Azimuth Distance (km) Brightness Sun altitude
Rises 22:36:40 0° 308° (NW) 2,832 - -51.1°
Reaches altitude 10° 22:39:58 10° 281° (W) 1,908 - -51.4°
Maximum altitude 22:41:58 13° 253° (WSW) 1,705 - -51.5°
Drops below altitude 10° 22:43:57 10° 224° (SW) 1,902 - -51.7°
Sets 22:47:15 0° 197° (SSW) 2,812 - -51.9°
